Temp
7 7 7 7 7 7 7 7 7 7 7 7 7 7 7 7 7 8 8 8 8 8 8 9 9 9 9 9 9 9 8 8 9 8 8 13 16 16 17 16 16 16 15 15 15 15 16 17 19 20 20 20 20 21 22 22 23 24 23 22 21 22 23 25 26 26 27 28 29 29 30 30 29 31 32 32 32 30 28 26 26 26 26 25 25 24 23 22
7 7 7 7 7 7 7 7 6 6 6 6 6 6 7 7 7 7 8 8 8 8 8 8 9 9 9 9 9 8 8 8 8 8 11 16 17 16 18 17 17 16 15 14 15 15 16 18 19 19 20 20 21 21 22 23 23 23 23 22 21 23 24 26 27 27 28 28 29 29 30 30 30 31 32 32 31 30 29 26 24 24 24 24 24 24 23 21
7 7 7 7 7 7 7 7 7 7 6 6 6 6 6 7 7 7 7 8 8 8 8 8 8 8 8 9 8 8 8 8 9 11 15 17 16 17 18 17 17 16 15 15 16 16 16 18 19 19 20 20 21 22 22 23 23 23 23 22 22 24 25 26 27 27 28 28 28 29 30 31 31 31 31 31 30 30 29 26 25 24 23 23 23 23 22 21
7 7 7 7 7 7 7 7 7 7 7 7 6 6 6 6 7 7 7 7 7 8 8 8 8 8 8 8 8 8 8 9 11 15 16 16 16 17 17 18 17 15 15 15 16 17 17 17 17 18 19 20 21 21 21 22 23 23 23 22 23 25 25 26 26 27 28 28 28 28 30 30 31 31 31 31 30 30 28 26 26 24 22 23 23 23 22 21
6 7 7 7 7 7 7 7 7 7 7 7 7 6 6 6 6 6 7 7 7 7 7 8 8 8 8 8 8 8 8 11 14 15 15 15 15 15 16 18 17 16 15 15 16 17 17 17 17 17 18 19 20 21 21 22 23 23 24 24 25 25 25 26 27 27 28 28 28 28 29 30 30 31 31 31 30 30 30 27 26 24 23 23 23 23 22 21
6 6 7 6 7 7 7 7 7 7 7 7 7 7 6 6 6 6 6 7 7 7 7 7 8 8 8 8 8 8 8 12 14 14 15 15 14 14 15 17 17 16 15 15 16 16 16 17 16 17 18 19 20 20 21 23 23 23 23 24 25 26 26 26 27 27 28 28 27 28 29 30 31 31 30 30 30 31 31 28 24 23 23 23 23 23 21 20
6 6 6 6 6 6 7 7 7 7 7 7 7 7 7 6 6 6 6 6 6 7 7 7 7 8 8 7 8 8 7 10 13 15 14 14 14 14 14 15 16 15 15 15 15 16 16 16 16 17 18 19 20 21 22 23 23 22 23 24 25 25 26 27 27 27 28 27 27 28 29 29 30 30 30 30 29 28 27 25 23 23 22 22 21 20 19 17
6 6 6 6 6 6 6 6 7 7 7 7 7 7 7 7 6 6 6 6 6 6 7 7 7 7 7 7 8 8 7 9 13 14 13 13 14 14 13 14 15 14 15 15 15 16 16 16 16 17 18 19 20 21 22 22 23 23 23 24 25 26 26 27 27 27 27 27 27 28 28 29 30 30 30 29 26 24 23 22 22 21 20 20 19 18 17 17
6 6 6 6 6 6 6 6 6 6 7 7 7 7 7 7 7 7 6 6 6 6 6 7 7 7 7 7 7 8 8 10 12 13 12 13 13 14 14 13 14 15 15 15 15 16 16 16 17 18 18 19 20 21 22 22 22 23 24 24 25 26 26 27 27 27 27 27 28 28 28 29 30 30 29 26 23 22 21 21 21 20 20 19 18 18 17 17
6 6 6 6 6 6 6 6 6 6 6 6 7 7 7 7 7 7 7 6 6 6 6 6 7 7 7 7 7 8 10 11 11 12 12 13 13 13 13 13 13 14 15 15 15 15 16 16 18 19 19 20 20 21 22 22 23 24 25 25 25 26 26 27 27 27 27 27 28 27 28 28 29 30 28 23 22 22 21 20 20 19 18 18 19 18 17 17
6 6 6 6 6 6 6 6 6 6 6 6 6 6 6 7 7 7 7 7 7 6 6 6 6 6 6 7 7 8 10 11 11 12 12 12 12 12 12 12 13 13 15 15 15 16 16 17 18 19 19 20 21 21 22 23 24 25 25 25 25 26 26 27 27 27 27 28 28 28 28 28 28 29 27 22 21 21 21 20 19 19 18 19 19 17 17 17
6 6 6 6 6 6 6 6 6 6 6 6 6 6 6 6 6 7 7 7 7 6 6 6 6 6 6 6 6 8 10 11 11 11 11 11 11 11 11 12 12 13 14 15 16 16 17 17 18 18 19 20 20 21 22 24 24 25 25 24 25 25 26 26 27 27 27 28 29 29 27 27 28 28 25 22 21 21 21 20 19 19 19 18 18 17 17 17
6 6 6 6 6 6 6 6 6 6 6 6 6 6 6 6 6 6 6 7 6 6 6 6 6 6 6 6 7 9 10 10 10 10 11 11 11 11 12 12 12 13 14 15 16 17 17 18 18 17 19 19 19 21 22 24 24 24 25 24 24 24 24 26 27 27 27 28 29 28 24 24 27 26 22 21 22 21 20 20 19 19 18 17 17 17 17 17
6 6 6 6 6 6 6 6 6 6 6 6 6 6 6 6 6 6 6 6 6 6 6 6 6 6 5 6 8 9 9 10 10 10 11 11 11 11 12 12 13 14 15 15 16 17 18 18 18 18 19 19 19 21 21 22 23 24 24 24 23 22 23 26 27 26 27 27 29 28 23 24 27 24 21 22 22 21 20 19 18 18 17 17 17 17 17 17
6 6 6 6 6 6 6 6 6 6 6 6 6 6 6 6 6 6 6 6 6 6 6 6 6 6 5 6 8 9 10 10 10 11 12 11 10 11 12 12 13 14 15 16 16 17 18 19 18 18 18 20 20 19 19 20 22 23 23 22 23 22 23 26 27 27 27 27 28 27 23 24 27 23 21 22 22 21 20 18 18 17 17 17 17 17 17 17
6 6 6 6 6 6 6 6 6 6 6 6 6 6 6 6 6 6 6 6 6 6 6 6 6 6 5 6 8 9 10 10 10 11 12 11 10 11 12 12 13 14 15 16 17 18 18 18 18 18 19 19 19 19 19 19 20 22 22 21 22 22 23 25 26 27 27 27 27 27 25 25 25 23 21 22 21 21 19 18 18 17 17 17 17 17 17 17
6 6 6 6 6 6 6 6 6 6 6 6 5 6 6 6 7 6 6 6 6 6 6 6 6 6 6 7 8 9 10 11 11 12 12 12 12 12 12 12 13 14 16 16 17 18 18 18 18 19 19 18 19 19 18 18 18 20 21 21 22 22 22 23 25 27 27 27 27 27 26 25 24 22 21 21 21 20 19 18 18 17 17 17 17 17 17 17
6 6 6 6 6 6 6 6 6 6 6 5 5 5 6 7 8 7 6 6 6 6 6 6 6 6 7 8 8 9 11 11 12 12 13 13 13 13 12 12 14 15 15 16 17 17 17 18 18 18 18 18 18 18 17 18 19 19 20 21 22 22 23 23 25 26 27 27 26 26 26 23 22 21 21 21 21 20 19 17 18 18 17 17 17 17 17 17
6 6 6 6 6 6 6 6 6 6 6 5 5 5 6 7 8 7 6 6 6 6 6 6 5 6 8 9 8 10 11 11 12 13 14 14 13 13 12 13 14 14 14 15 16 17 17 17 17 17 17 17 18 18 18 20 21 21 21 22 21 22 22 23 26 27 27 26 26 26 25 22 21 21 21 21 20 19 18 17 18 17 17 17 17 17 17 17
6 6 6 6 6 6 6 5 6 6 5 5 5 5 5 6 6 6 6 6 6 6 7 7 6 6 8 9 10 10 11 11 12 13 13 14 14 13 12 13 14 14 14 14 15 17 17 16 16 16 17 18 19 19 20 21 22 22 22 22 22 22 22 24 26 27 27 26 25 26 24 22 21 21 21 20 20 19 17 17 18 17 17 17 17 17 17 17
6 6 6 6 5 5 5 5 5 6 5 5 4 4 5 5 5 5 6 6 7 7 7 8 8 7 8 9 10 10 10 11 11 12 13 14 14 12 12 13 13 13 13 14 15 17 17 15 15 17 18 19 19 20 21 21 21 22 21 22 22 22 23 25 26 27 27 26 25 25 23 21 21 21 20 20 19 19 18 18 17 17 17 17 17 17 17 17
6 6 6 6 5 5 5 5 5 6 5 5 4 4 5 6 6 6 5 5 6 7 7 8 8 8 9 9 10 10 10 9 10 11 13 14 14 13 13 13 12 12 13 14 14 16 16 15 16 18 19 20 20 20 21 21 21 21 21 21 21 22 23 24 26 27 27 26 25 25 23 21 21 21 20 20 20 19 18 18 18 17 17 17 17 17 17 17
5 5 5 5 5 5 5 5 5 6 5 5 5 4 5 6 6 6 5 4 5 7 8 7 8 8 8 9 10 10 9 9 10 11 13 14 13 13 13 13 13 13 13 13 14 14 15 15 17 18 19 20 20 20 20 20 20 20 21 21 21 22 23 22 24 26 26 26 26 25 22 21 21 21 20 20 20 19 19 19 18 17 17 17 17 17 17 17
5 5 5 5 5 5 5 5 6 6 5 5 5 6 6 6 6 5 5 5 5 7 8 8 8 8 8 9 10 10 9 10 10 11 13 14 13 14 14 13 13 13 13 14 14 15 16 17 18 19 19 20 20 20 20 20 19 20 20 21 21 22 23 23 25 26 26 26 25 23 21 20 20 20 20 20 20 19 18 18 18 17 17 17 17 17 17 17
5 5 5 5 5 5 5 5 6 6 5 6 6 6 6 6 6 5 5 5 5 6 9 9 9 9 10 11 11 11 10 11 11 12 14 14 14 14 14 14 14 13 13 15 15 15 16 18 19 19 19 19 19 20 20 20 19 20 20 21 22 23 23 24 25 25 23 23 23 23 21 20 20 19 20 20 20 19 18 18 17 17 17 17 17 17 17 17
5 5 5 5 5 5 5 5 5 5 5 5 6 6 6 6 6 5 5 5 5 7 9 9 9 10 11 11 11 11 10 10 12 13 14 14 14 15 15 15 15 14 14 16 16 16 17 19 19 18 19 19 19 19 20 20 19 19 21 22 23 23 23 23 24 23 21 21 24 25 22 19 19 19 20 20 20 19 18 18 18 17 17 18 18 18 18 18
5 5 5 5 5 5 4 5 5 5 5 6 6 6 6 6 6 6 5 4 5 7 8 8 9 11 11 11 12 11 9 11 13 14 14 14 14 15 15 15 15 15 16 17 16 17 18 19 18 18 18 19 19 19 20 21 20 20 22 23 23 23 23 23 23 22 22 23 24 24 23 20 19 20 20 20 19 19 18 18 18 18 18 18 18 18 18 18
5 5 5 5 5 5 4 4 4 4 5 6 6 6 6 6 6 6 5 4 6 8 8 8 10 11 11 12 12 11 10 13 14 14 15 15 15 15 15 15 15 15 17 17 15 17 19 18 18 19 18 18 19 20 21 22 21 21 23 24 23 23 23 23 23 22 23 22 21 22 22 20 19 20 20 20 20 19 19 18 18 18 18 18 18 18 18 18
5 4 5 5 5 5 5 5 5 5 6 6 6 6 6 6 5 5 5 5 7 8 8 8 10 11 11 11 11 11 12 13 13 14 15 15 15 15 14 16 16 16 17 17 16 18 19 19 19 19 18 19 20 21 22 22 21 22 23 23 24 24 24 24 23 22 22 21 20 21 21 20 20 20 20 19 20 20 19 19 18 19 19 19 18 18 18 18
4 5 5 5 5 6 5 5 5 6 6 6 6 6 6 6 5 5 5 6 7 7 7 8 9 10 9 10 11 11 11 12 13 15 15 15 15 15 15 16 17 16 17 17 17 19 20 21 21 20 20 20 21 22 22 22 22 23 23 23 23 23 24 24 23 22 21 21 21 21 21 21 20 20 20 20 21 21 19 19 18 19 19 19 19 19 18 18
5 6 6 6 6 6 5 5 6 7 6 6 6 6 6 5 5 4 5 7 7 7 7 7 9 9 8 8 9 10 11 12 13 14 14 15 15 14 15 15 16 16 16 17 17 18 20 20 20 21 21 21 22 22 22 23 23 23 23 22 22 22 22 22 22 22 21 20 21 22 21 21 20 20 20 21 22 22 20 19 19 19 19 19 19 19 18 18
5 6 7 7 7 7 6 6 7 7 6 6 6 6 5 5 5 5 6 7 7 7 7 7 8 8 8 7 8 10 11 11 12 13 14 14 14 14 14 14 15 14 14 15 16 17 18 20 21 21 22 22 21 21 21 22 22 22 22 21 21 20 21 21 20 21 20 21 22 23 22 21 21 21 21 22 22 22 21 20 20 19 19 19 19 19 18 18
5 7 8 8 8 7 7 7 7 6 6 6 6 5 5 5 6 6 6 7 7 7 7 7 7 8 8 7 8 10 11 11 13 13 13 14 14 14 14 15 15 15 14 15 16 17 17 19 21 21 21 22 22 20 20 21 21 21 21 21 20 20 20 20 20 20 21 21 22 23 22 21 21 22 23 22 23 22 21 21 20 19 19 19 19 18 18 18
6 7 8 8 8 8 8 8 7 6 6 6 6 5 5 5 6 7 7 7 7 7 7 7 7 7 8 7 8 11 11 11 13 13 13 14 13 13 14 15 16 16 16 16 16 17 17 17 20 21 21 22 22 21 21 22 21 21 22 21 20 20 21 20 20 21 21 21 22 22 22 21 21 22 23 23 23 23 22 21 21 20 19 19 19 18 18 18
7 8 8 8 8 8 8 8 7 7 6 6 5 5 6 6 7 7 7 7 7 7 7 8 7 7 8 8 9 12 12 12 13 13 14 14 13 13 14 15 15 15 16 16 16 17 17 18 20 22 22 22 22 23 23 23 21 22 23 22 21 21 22 21 21 21 21 21 21 21 21 22 22 22 22 23 23 22 21 21 20 20 19 19 18 18 18 18
7 8 8 8 8 9 9 8 7 7 6 5 5 6 6 7 7 7 7 7 7 6 7 8 8 7 9 10 11 12 13 13 13 13 14 15 14 14 15 15 16 16 16 16 17 18 18 19 22 23 22 23 23 23 24 23 22 22 22 21 22 23 23 21 20 21 21 21 21 21 21 22 23 22 21 22 22 21 21 20 20 19 19 18 18 18 18 18
6 7 7 8 9 9 9 8 7 7 6 5 6 6 7 7 7 7 7 7 7 6 6 7 8 8 9 11 10 11 12 13 14 13 14 15 15 15 16 16 17 17 16 17 18 20 19 19 22 22 22 23 24 24 24 24 24 23 21 22 24 24 23 22 21 20 21 21 21 21 21 21 22 21 20 21 21 20 20 20 19 19 18 18 18 18 18 18
5 6 7 9 10 9 9 8 7 6 6 5 6 7 7 7 7 7 7 8 7 7 6 7 8 8 9 10 10 11 12 13 14 14 14 14 15 16 16 17 17 17 17 17 17 19 20 20 21 22 22 23 24 24 23 24 25 24 23 24 24 22 21 21 21 21 21 21 21 21 21 21 21 20 20 20 20 20 20 20 19 18 18 18 18 18 18 18
5 6 8 10 10 10 9 8 7 6 6 6 6 7 7 7 7 7 7 8 7 7 7 7 8 8 8 9 10 11 12 12 14 15 15 14 15 16 17 17 18 18 18 18 17 18 20 20 20 22 23 23 23 23 21 22 24 24 24 24 24 22 22 21 21 21 21 21 21 21 21 21 21 20 20 20 20 20 20 19 19 19 18 18 18 18 18 18
5 6 8 10 10 10 9 8 7 6 6 6 6 7 7 7 8 7 8 8 8 7 7 7 7 7 8 9 10 11 12 13 14 15 15 15 15 16 17 18 18 18 19 19 18 19 19 20 20 21 22 22 22 22 22 21 22 23 22 22 22 23 22 22 22 21 21 21 21 21 21 21 22 22 21 21 21 20 20 20 19 19 18 18 18 18 18 18
5 6 8 10 9 9 8 7 7 6 6 7 7 7 7 7 8 8 9 9 8 8 8 7 7 7 7 9 10 11 12 13 15 16 16 15 15 16 17 18 19 19 19 19 19 19 19 20 20 21 21 21 21 23 23 23 23 23 22 22 22 23 22 21 21 21 21 21 21 21 21 22 23 22 22 22 21 21 21 20 20 19 19 18 18 18 18 18
5 6 9 10 9 9 8 7 7 6 6 7 7 6 7 7 7 9 10 10 9 8 7 7 7 7 7 9 11 11 12 13 15 16 16 16 16 16 18 19 19 19 20 19 19 21 20 20 20 20 21 21 22 23 24 24 24 24 23 23 23 23 22 21 21 21 22 21 21 21 21 22 22 22 22 22 22 22 21 21 20 19 19 19 18 18 18 18
5 6 8 10 9 9 8 7 7 7 7 8 8 6 6 6 7 8 9 10 9 9 8 8 8 9 9 10 11 11 12 13 14 16 17 17 17 17 18 19 19 19 19 20 20 21 21 20 20 20 21 22 23 23 24 24 24 23 23 24 23 23 23 23 22 22 22 21 21 21 21 22 22 21 22 22 22 22 22 21 20 19 19 19 18 18 18 18
5 5 7 9 10 9 8 7 7 7 7 8 8 8 7 6 6 8 9 9 9 9 9 9 9 10 10 11 11 12 12 13 15 17 17 17 17 19 19 20 20 19 19 20 21 21 21 20 20 20 20 20 21 22 22 23 23 23 23 24 24 24 24 24 23 22 22 21 21 21 21 22 22 21 21 22 22 21 21 20 20 19 18 18 18 18 18 17
5 5 7 9 9 9 8 7 7 7 7 7 8 8 8 7 7 8 8 8 10 10 9 9 10 10 11 11 11 12 13 13 14 17 17 16 18 19 20 20 20 20 20 21 21 22 21 20 21 20 19 18 19 19 20 21 21 22 23 23 24 24 24 23 22 22 21 20 21 21 21 21 21 20 21 21 21 20 19 19 18 18 18 18 18 18 18 17
6 6 6 7 8 8 7 8 7 7 7 7 7 9 9 9 9 9 9 9 10 10 9 10 11 11 11 12 11 12 13 13 14 16 16 16 17 19 21 20 20 20 21 21 22 22 21 20 21 20 19 19 19 20 21 22 21 22 22 23 24 24 24 23 22 21 21 21 21 21 21 20 20 20 20 20 20 19 19 18 18 17 18 18 18 18 17 17
6 6 5 5 6 7 7 7 7 6 6 7 7 9 9 9 10 10 10 10 9 9 9 11 11 11 12 12 11 11 12 13 14 14 14 15 16 19 21 21 20 21 22 22 22 22 21 20 20 21 21 21 21 22 23 23 22 22 22 23 23 24 24 22 22 21 21 21 21 21 21 20 20 19 19 20 20 19 18 18 18 18 18 18 18 18 17 17
5 5 5 5 5 6 6 6 6 6 7 8 8 9 9 9 9 9 9 9 9 9 9 10 11 11 12 12 11 11 12 12 13 13 13 13 14 16 20 21 20 21 22 22 22 21 21 20 20 21 21 21 22 23 23 23 23 22 23 23 22 23 24 23 22 22 22 22 22 21 21 20 20 20 19 20 20 20 19 19 18 18 18 18 17 17 17 16
5 5 5 5 5 5 5 5 6 7 7 9 9 9 9 9 9 9 9 8 9 9 9 9 10 11 12 12 12 11 11 12 12 12 13 13 12 14 18 20 20 21 21 21 21 20 20 20 19 21 22 21 22 23 23 23 23 23 23 23 23 22 23 24 23 22 23 23 22 21 20 20 20 19 19 19 20 19 19 18 18 18 18 17 17 17 17 16
4 4 4 5 4 5 5 6 7 7 8 8 8 8 9 9 9 9 9 9 9 9 9 9 10 10 11 12 12 11 12 12 11 12 12 12 12 14 17 18 19 20 21 21 20 20 20 19 19 20 21 21 22 23 22 23 23 22 22 23 23 22 22 23 23 23 23 22 20 20 20 20 19 19 19 19 19 18 18 18 18 18 18 17 17 17 16 16
3 4 4 4 4 5 6 7 7 7 7 8 8 8 9 9 9 9 9 9 9 9 9 9 9 10 11 12 12 12 13 12 12 12 12 12 12 13 15 16 16 17 20 21 20 20 21 19 19 21 21 21 21 22 22 22 22 22 22 22 22 22 22 23 23 23 24 21 19 19 20 20 19 18 18 18 19 18 18 18 18 18 18 17 17 17 16 16
3 4 4 4 4 6 6 6 6 7 7 7 7 8 8 9 9 9 9 9 9 9 10 9 10 10 10 11 12 13 13 13 13 13 12 12 12 12 13 14 14 15 18 21 20 19 20 20 20 20 20 20 20 20 21 21 20 21 21 21 21 22 22 22 23 24 23 21 20 21 21 20 18 18 18 18 18 18 18 18 18 18 18 17 17 17 16 16
Height
829 828 826 825 824 822 821 820 818 817 816 814 813 812 810 809 807 806 805 803 803 801 801 800 798 798 797 796 795 793 790 787 783 782 780 769 765 767 767 767 767 769 771 771 772 773 772 771 770 770 772 773 773 772 772 771 771 775 782 789 790 788 783 775 773 773 772 771 764 758 758 761 760 752 743 740 742 745 749 750 746 744 743 744 746 750 756 762
828 827 826 824 823 822 820 819 817 816 815 813 812 811 809 808 806 805 804 803 802 800 799 799 798 797 796 795 794 792 789 785 782 778 770 762 762 764 763 764 766 768 770 770 771 772 772 771 769 770 771 772 771 769 771 768 768 772 777 784 782 776 772 765 765 765 765 766 760 757 755 755 755 749 743 747 751 748 751 756 754 752 750 749 751 756 761 765
827 826 825 823 822 821 820 818 817 815 814 812 811 810 808 807 806 804 803 802 800 799 798 797 796 796 795 794 793 792 788 784 780 771 762 760 761 760 759 761 763 766 768 769 770 771 771 770 770 771 771 772 770 768 770 767 766 768 771 778 772 765 765 761 761 761 759 759 758 758 754 753 750 745 744 750 754 752 753 756 756 759 757 755 755 758 763 767
826 825 824 822 821 820 818 817 816 814 813 811 810 809 808 806 805 804 802 801 799 798 797 796 795 794 794 794 793 791 789 784 773 763 760 760 760 759 758 758 761 764 766 767 769 769 769 770 771 771 771 772 769 767 768 764 764 765 765 769 763 760 763 758 757 757 755 756 757 757 755 754 748 743 745 749 755 757 755 751 749 755 756 756 758 758 763 767
825 824 823 821 820 818 817 816 814 813 812 810 809 808 806 805 804 803 801 800 799 797 796 796 794 793 793 793 792 791 791 782 764 758 759 759 759 760 759 758 760 762 764 767 768 768 769 770 771 771 771 771 769 767 766 760 760 762 758 758 757 757 760 755 753 754 753 754 756 758 759 755 747 745 746 748 755 755 748 744 743 747 750 752 757 761 766 770
825 823 822 820 819 818 816 814 813 812 810 809 808 807 805 804 803 802 800 799 798 796 795 794 793 793 792 791 791 791 792 778 758 757 758 756 759 758 759 759 759 761 763 766 766 767 768 769 772 773 770 769 767 765 763 757 758 762 757 754 754 754 755 752 750 751 751 753 756 757 755 751 750 750 747 746 749 744 736 737 742 746 749 753 758 764 771 776
824 823 821 819 818 816 815 813 812 810 809 808 806 805 804 803 802 801 799 798 797 795 794 793 792 792 790 791 790 789 792 777 755 756 757 756 760 759 760 760 760 761 762 764 765 766 767 768 771 770 769 768 765 762 760 756 755 760 759 753 752 751 750 749 747 748 749 751 752 751 751 752 754 752 747 746 745 740 738 739 745 750 754 760 765 770 775 780
823 822 820 818 817 815 814 812 810 809 808 806 805 804 803 801 800 799 798 797 795 794 793 792 791 790 790 790 788 788 787 770 752 756 759 758 761 760 762 761 761 762 761 763 762 764 766 768 769 768 769 767 762 759 757 758 757 756 756 752 750 749 747 746 746 746 747 749 748 750 754 753 752 749 748 749 746 743 742 744 748 752 757 763 768 773 777 781
822 821 819 817 816 814 812 811 809 808 806 805 803 802 801 800 799 798 797 796 794 794 792 791 790 789 790 788 788 786 773 758 755 759 760 760 760 760 761 762 763 761 760 761 761 763 765 766 766 764 766 763 760 758 755 759 758 751 752 751 749 748 745 744 744 744 745 746 747 751 755 752 748 747 752 753 749 746 745 748 751 753 760 765 768 771 774 778
821 819 818 816 814 813 811 809 808 806 805 803 802 800 799 798 797 796 795 794 793 792 791 790 789 788 788 786 787 780 760 756 761 760 759 760 759 759 759 761 763 761 760 759 759 762 761 762 762 760 763 760 757 756 753 755 752 745 748 749 747 747 743 742 743 741 742 744 745 752 754 751 745 748 758 757 749 747 749 754 755 756 763 765 767 770 772 777
820 818 817 815 813 811 809 808 806 804 803 801 800 799 797 796 795 794 793 793 792 791 790 789 788 788 786 785 785 772 756 757 760 758 759 758 758 758 757 759 761 761 759 758 757 758 758 759 759 760 762 758 755 755 750 748 746 743 746 748 746 745 743 741 742 740 743 744 742 747 751 750 747 748 755 756 751 747 751 758 760 762 766 766 768 770 772 775
819 817 815 813 812 810 808 806 804 803 801 799 798 797 795 794 793 792 791 791 790 790 789 788 788 787 785 783 777 764 756 757 757 757 758 757 758 756 755 757 758 760 759 757 756 755 756 757 758 762 759 755 757 757 749 743 743 743 744 750 748 745 744 740 740 739 742 744 738 743 755 756 752 750 751 752 751 749 753 761 764 765 767 768 770 771 772 774
818 816 814 812 810 808 806 804 802 801 799 798 796 794 793 792 791 790 789 788 788 788 787 787 786 785 785 777 765 759 759 757 755 756 754 755 756 753 752 755 755 756 757 755 754 752 754 755 757 759 755 756 758 752 745 740 742 743 743 749 752 752 748 738 737 739 740 741 734 743 765 766 754 752 752 749 750 752 757 762 764 766 769 771 772 773 775 776
816 814 812 810 808 807 805 803 801 799 797 796 794 793 791 789 788 787 787 786 785 786 785 786 785 784 783 771 758 757 759 757 755 753 751 752 754 751 749 751 752 753 752 752 752 751 752 753 755 757 753 754 754 749 748 746 743 743 745 748 751 758 752 737 735 738 741 738 731 743 766 764 753 755 754 748 748 752 760 764 766 768 770 772 773 774 776 776
815 813 811 809 807 805 803 801 799 797 796 794 791 790 787 786 785 783 784 783 783 784 783 783 783 783 781 768 756 755 755 755 751 747 747 749 753 751 746 748 750 749 749 749 749 749 750 750 753 755 753 750 751 755 757 755 747 743 750 754 751 756 752 737 731 734 739 738 731 743 763 760 752 754 753 748 748 751 761 767 768 770 771 772 773 773 776 776
814 812 809 808 805 804 802 799 798 796 794 792 790 788 785 783 781 780 780 779 781 781 782 782 780 782 781 766 753 751 751 750 745 743 745 747 750 749 746 748 747 747 747 746 746 747 747 748 750 751 751 750 752 758 761 762 756 746 750 756 752 754 752 741 732 729 732 737 736 741 755 758 752 752 751 749 750 752 762 769 769 771 771 771 773 773 774 776
812 810 808 806 804 802 800 797 796 794 792 790 788 785 782 779 776 776 776 776 778 778 780 779 777 781 774 759 753 749 746 745 744 743 743 744 746 746 746 748 746 746 745 743 744 744 745 747 748 748 748 750 751 756 764 768 764 755 750 752 750 749 750 746 737 728 728 735 740 741 747 754 752 751 752 751 751 754 762 769 769 770 771 772 773 774 775 775
811 809 807 804 802 800 798 796 794 792 790 788 785 783 780 776 772 772 772 774 775 776 779 776 779 782 765 751 753 747 742 745 743 742 741 741 743 743 745 746 745 745 745 744 742 742 745 745 747 750 749 749 749 752 761 760 757 758 753 751 749 745 746 745 738 730 728 733 740 743 748 756 756 753 753 753 752 755 762 767 768 769 771 773 774 775 776 775
810 807 805 803 800 798 796 794 792 790 788 785 783 780 776 772 769 769 770 772 774 776 776 772 776 775 756 745 748 744 743 744 741 740 739 738 740 741 744 745 745 746 747 747 743 740 743 746 748 750 747 745 744 747 752 748 745 749 748 747 747 745 745 741 733 726 726 734 740 742 749 758 760 756 754 754 754 758 764 767 768 770 771 773 774 775 777 777
808 805 803 801 798 796 794 792 790 788 786 784 782 779 776 773 773 772 770 772 771 769 767 765 766 763 752 745 743 743 743 741 739 736 735 736 738 740 743 744 745 747 747 748 744 738 741 748 748 744 742 740 740 742 744 742 739 741 743 744 742 742 743 736 730 724 723 734 740 739 747 756 757 755 753 754 757 763 767 769 770 771 771 772 773 775 777 778
806 804 801 799 796 794 792 790 787 786 785 783 781 781 780 779 780 778 773 769 765 763 762 759 759 757 751 744 741 745 745 740 735 731 731 733 733 738 742 742 746 748 747 746 744 737 739 747 744 739 739 737 737 739 739 739 739 740 743 744 742 742 740 732 729 724 721 732 739 739 749 757 755 754 754 754 758 763 765 767 769 770 771 772 772 774 777 778
804 802 799 797 794 792 790 787 786 784 783 782 781 781 780 778 778 777 776 771 761 758 759 756 755 754 748 742 740 746 750 745 737 728 727 730 730 735 737 739 744 745 745 746 745 741 741 742 738 736 735 733 735 737 737 739 740 742 743 744 744 741 738 733 728 724 723 732 739 740 750 758 755 754 757 756 756 758 759 759 762 765 768 771 772 773 776 778
803 799 797 795 792 790 788 785 784 782 781 780 779 779 777 776 776 775 776 775 761 752 753 753 751 750 747 741 738 744 748 746 741 729 724 729 730 730 733 737 741 743 743 744 744 743 742 738 734 733 732 733 735 735 737 740 741 742 743 747 746 738 738 740 732 726 725 729 734 740 753 761 759 758 759 758 757 759 760 759 761 763 764 767 769 771 774 774
800 798 796 793 791 789 786 784 782 781 780 779 778 776 776 775 775 774 775 774 763 749 746 745 742 743 740 734 735 741 743 740 739 729 722 727 728 727 731 733 738 742 740 739 739 739 736 730 728 730 731 732 735 735 737 742 744 742 741 744 745 738 737 737 732 728 728 730 733 744 764 771 765 766 765 761 762 764 764 765 766 766 765 767 769 771 772 770
799 797 794 791 790 787 784 782 780 780 778 777 776 775 775 775 772 773 773 774 767 750 741 738 736 733 728 728 733 736 737 734 729 725 721 724 726 726 728 729 734 738 736 735 736 737 733 725 724 730 731 731 734 734 733 738 746 744 739 738 738 737 735 734 732 733 739 745 737 742 771 782 771 770 769 762 764 768 769 769 770 770 769 769 770 770 770 769
798 795 792 790 788 785 783 781 779 780 777 775 775 774 774 773 772 772 772 775 768 749 739 739 735 727 722 726 729 733 741 732 718 720 722 723 723 723 725 726 727 731 732 731 732 732 728 722 723 728 730 731 733 733 728 731 744 747 735 729 732 734 735 735 736 740 748 749 735 730 757 783 780 772 767 761 763 768 769 771 771 770 770 768 768 768 767 768
796 793 791 789 786 785 783 781 780 779 777 775 774 774 774 772 772 771 771 778 767 745 740 741 734 727 722 722 723 733 743 727 711 715 717 719 721 720 723 724 724 727 724 726 732 726 720 721 724 725 729 731 731 731 725 725 739 743 728 723 730 733 734 736 739 744 743 739 735 728 740 772 783 770 763 762 765 769 770 770 771 769 768 766 765 765 765 766
795 791 789 786 785 784 783 781 780 778 777 775 773 773 773 771 773 770 773 778 761 741 741 738 730 725 723 721 721 726 727 715 710 712 710 716 720 718 721 720 721 723 717 722 731 722 714 720 722 722 727 729 726 724 720 722 733 732 722 722 727 729 732 733 738 742 739 740 748 741 739 767 780 765 760 764 766 770 770 767 768 766 764 764 763 764 764 765
792 788 786 784 782 781 781 780 778 776 775 773 773 772 771 772 772 772 775 770 749 738 741 736 728 727 725 722 722 722 717 712 711 708 707 715 717 717 720 716 716 720 715 717 724 718 712 712 713 718 724 724 721 718 716 721 727 722 719 723 724 726 729 730 736 739 740 749 755 745 740 762 779 769 763 769 768 767 765 762 763 762 760 761 761 762 763 764
789 785 783 781 779 778 778 778 776 775 774 773 773 771 771 772 772 777 778 763 745 741 742 737 731 730 730 727 724 722 719 714 711 707 709 713 714 717 718 713 713 718 716 716 717 714 707 705 707 711 714 715 715 714 714 717 720 717 719 725 728 729 729 730 733 734 746 755 747 739 738 750 773 772 761 760 753 748 754 758 759 758 758 759 759 760 762 763
785 782 780 779 777 776 776 776 774 774 773 773 773 771 771 772 775 782 773 753 745 743 740 738 732 731 735 734 730 724 720 717 712 711 712 712 714 716 716 715 715 719 721 719 717 713 708 706 706 703 703 708 712 714 713 712 715 717 720 728 736 739 736 738 739 739 754 757 735 731 737 742 760 765 752 745 735 734 743 748 750 752 753 754 756 757 760 761
782 779 777 776 775 774 774 774 773 773 773 773 773 772 773 775 777 777 763 747 745 742 739 740 735 733 736 738 734 725 720 718 714 713 713 711 714 715 715 716 715 721 727 723 718 717 713 706 702 701 699 702 711 718 718 715 716 720 722 730 744 751 750 753 753 748 753 748 725 723 734 738 744 741 735 734 730 731 734 731 735 741 745 750 752 755 757 760
780 777 775 774 773 772 771 771 771 772 773 772 773 772 775 778 771 762 756 751 746 740 740 740 736 734 737 739 733 721 719 718 713 714 712 709 714 714 713 712 710 715 721 720 720 720 718 709 700 702 701 696 703 716 721 719 718 721 724 731 745 753 758 763 760 752 749 738 720 718 728 737 736 727 722 723 721 720 723 725 729 733 738 744 748 752 756 759
776 775 773 771 770 769 769 769 770 771 771 772 773 773 774 773 761 751 751 749 743 739 740 738 735 734 734 737 731 717 717 718 710 712 712 710 715 716 713 711 709 709 712 717 720 718 722 719 703 698 698 694 697 704 709 711 715 718 716 723 737 740 745 755 752 746 745 735 722 722 729 732 730 721 713 711 711 715 722 728 732 736 740 744 748 752 756 759
774 772 771 768 768 767 767 768 769 770 771 771 774 773 770 764 755 752 750 745 742 743 738 733 734 735 730 729 724 713 713 715 709 710 710 708 712 713 711 709 708 709 710 715 715 711 717 714 695 688 688 688 695 696 694 704 715 715 711 719 729 725 725 736 738 734 732 730 727 725 725 721 717 715 710 708 714 721 727 732 736 741 745 747 751 754 756 759
771 769 768 766 766 765 765 766 768 769 770 772 773 770 764 758 753 751 748 743 744 745 740 733 732 734 726 718 716 712 709 709 708 710 708 705 707 707 706 705 703 706 708 710 707 704 713 709 688 684 686 683 689 691 688 698 709 711 714 719 715 710 713 724 735 734 728 733 733 725 724 719 715 720 718 716 723 729 730 734 738 742 746 750 752 754 756 759
770 768 766 765 764 764 764 765 766 768 769 772 772 765 757 753 750 749 745 743 744 744 744 741 733 730 724 717 719 717 711 706 705 708 707 705 705 702 702 702 699 701 703 705 701 694 703 705 687 683 690 682 679 685 686 687 692 704 715 713 704 706 712 717 732 738 735 739 733 723 725 722 721 732 732 726 733 736 735 736 741 745 748 751 752 754 756 757
771 768 765 763 763 762 763 764 765 767 769 771 768 760 753 750 749 748 745 741 742 744 745 742 735 731 726 723 722 717 712 709 704 703 705 706 703 697 697 699 696 696 696 701 705 695 694 702 691 680 686 683 676 686 694 687 683 693 700 698 702 717 724 723 731 738 740 744 737 727 726 722 725 738 737 732 736 737 737 738 741 745 747 749 752 753 755 757
772 769 766 763 762 761 763 764 765 768 770 769 765 756 751 749 745 745 744 740 741 744 743 740 736 734 730 727 724 717 712 709 704 700 701 705 703 693 691 693 693 693 692 696 705 699 692 699 697 682 677 681 682 689 700 697 688 688 691 692 697 708 716 718 723 728 732 741 740 734 732 724 722 728 728 729 732 732 735 738 739 741 744 747 749 751 754 756
773 771 767 763 763 762 763 765 766 769 770 766 762 755 749 747 743 741 740 737 739 740 740 739 738 737 733 728 724 718 711 707 703 698 696 700 701 694 688 688 689 690 690 692 696 696 693 695 698 689 678 684 691 690 694 698 694 694 698 701 700 702 705 710 716 718 720 731 736 737 736 723 712 713 716 719 723 723 726 729 733 738 741 744 747 748 751 754
775 774 768 763 764 763 764 767 767 769 768 762 759 754 748 746 743 738 733 732 736 737 738 739 738 738 737 729 722 718 714 706 698 693 693 696 699 694 686 684 687 687 689 694 694 693 694 693 693 692 688 691 692 683 682 687 689 692 697 701 701 702 707 717 724 718 711 719 726 729 733 720 705 704 706 707 711 713 714 718 725 732 736 740 744 746 748 751
778 776 769 764 766 764 765 769 766 766 766 760 757 755 750 747 743 737 731 731 733 735 737 739 737 737 737 729 720 717 714 706 697 691 690 692 693 691 683 680 684 685 686 692 689 682 685 689 691 692 690 689 684 677 677 680 682 687 691 694 698 700 705 717 726 718 710 716 719 722 727 718 706 703 701 700 702 703 708 714 721 729 732 735 740 744 746 749
780 777 768 763 766 765 767 770 764 762 762 755 751 753 752 749 745 738 733 732 732 733 735 736 733 731 729 724 719 715 712 706 698 690 688 687 686 684 681 680 682 684 685 689 683 675 679 687 690 692 689 683 678 676 676 676 680 688 691 690 694 698 698 702 711 710 709 715 718 724 730 717 705 704 702 702 702 703 708 713 720 729 733 736 741 744 747 751
780 777 769 765 765 765 769 771 767 764 760 752 748 747 747 750 747 741 737 734 732 732 733 731 729 727 723 721 719 715 712 709 698 686 686 687 682 677 678 679 680 683 684 683 678 675 680 685 687 696 701 698 695 693 689 685 685 690 692 690 690 693 694 696 702 706 712 717 715 721 729 718 706 706 706 707 710 714 719 721 725 731 734 738 743 745 749 753
780 776 771 767 766 766 769 770 770 769 763 757 752 745 744 746 744 740 740 736 730 729 730 728 724 723 721 719 717 712 708 708 701 689 687 688 682 675 675 676 677 679 678 676 671 670 679 682 682 694 709 713 712 709 700 694 692 690 691 691 689 689 694 698 703 709 719 723 717 716 723 720 714 712 710 711 716 723 728 731 734 738 740 741 743 745 748 752
781 780 776 771 767 767 769 768 768 770 767 763 756 745 743 743 738 736 737 735 730 728 728 725 720 719 717 715 715 712 705 703 701 694 691 692 686 676 671 672 673 675 675 673 669 669 676 680 680 688 699 704 704 699 690 688 693 695 694 694 691 688 693 699 705 710 715 717 717 715 717 722 724 721 716 716 719 723 727 731 737 743 745 744 743 744 746 749
785 786 785 782 776 771 770 768 768 769 767 764 759 749 744 743 738 735 734 733 733 731 727 723 719 718 718 715 717 715 709 704 702 700 700 699 691 678 670 670 672 673 672 670 668 671 677 683 684 684 686 690 690 686 682 683 691 695 694 696 694 690 693 701 705 708 710 714 718 718 717 721 725 723 719 718 719 723 727 729 732 737 740 742 743 745 747 750
789 789 788 788 786 781 777 772 769 769 764 759 756 750 746 744 742 740 738 736 734 732 730 726 721 721 719 717 720 720 715 711 708 707 705 704 699 688 675 673 674 672 672 671 669 672 680 686 686 682 682 685 684 681 681 682 687 691 692 695 696 694 693 697 703 706 706 708 711 713 716 719 719 719 717 713 712 716 719 721 724 729 736 741 743 746 749 751
793 792 789 788 789 787 783 777 772 769 763 756 754 752 748 747 745 743 742 740 735 732 733 732 728 724 720 716 718 722 720 717 715 713 710 709 708 699 685 680 677 673 674 675 673 675 683 689 688 682 682 685 683 681 682 683 686 690 692 693 695 697 694 693 699 703 701 702 706 711 718 721 717 717 716 712 711 714 717 721 725 730 737 741 743 746 748 750
797 797 793 791 790 785 780 776 772 769 763 758 758 756 751 750 748 743 741 742 739 734 734 735 732 727 723 717 718 721 719 717 718 716 713 713 712 703 693 689 686 682 678 678 678 677 682 691 690 683 685 688 683 680 682 684 687 690 692 692 694 700 700 697 700 701 699 708 717 717 720 723 720 717 718 717 717 721 726 729 730 733 736 740 743 746 748 750
800 799 796 794 790 783 778 775 772 770 765 762 762 759 753 751 750 746 741 739 740 737 734 735 733 728 724 719 717 717 714 712 714 713 711 713 711 705 701 697 695 694 684 679 683 681 681 690 690 685 692 696 687 682 684 686 691 693 693 693 695 699 700 698 698 697 697 710 724 726 723 722 720 719 721 719 717 721 727 730 732 735 736 738 741 744 746 749
800 798 796 796 791 783 779 777 773 771 768 765 764 761 757 752 748 746 743 739 737 736 733 732 731 728 725 721 715 713 711 708 708 707 707 709 707 705 704 699 698 699 691 682 686 687 685 689 691 692 699 699 694 693 691 693 704 707 699 697 700 699 698 698 696 693 696 706 718 720 716 714 716 719 722 723 721 722 724 726 729 733 735 738 740 742 745 748
Wind_Speed
18 19 18 18 19 18 18 18 18 18 17 17 17 16 17 17 17 15 15 16 15 15 15 15 16 16 18 20 21 24 29 31 30 25 17 21 26 21 18 15 12 11 9 12 15 11 10 9 9 9 7 5 4 3 5 5 3 3 4 5 7 6 7 7 8 7 5 6 12 9 5 10 10 6 3 5 5 4 5 4 4 4 4 7 13 27 36 34
18 19 19 19 19 19 19 19 18 18 18 18 18 17 16 17 18 16 15 16 15 16 15 15 16 15 16 17 20 24 28 30 26 23 22 20 19 19 21 21 19 17 11 12 14 10 6 4 5 5 4 3 3 4 4 4 5 6 4 6 8 7 7 7 8 7 5 8 11 6 6 8 7 6 1 1 5 3 5 4 6 8 8 10 18 29 31 31
18 19 20 19 19 19 19 19 19 19 18 18 18 18 18 17 18 17 17 16 15 16 16 16 16 16 16 14 18 23 26 25 17 14 12 10 9 11 17 22 21 17 13 12 12 11 9 7 7 3 3 4 3 5 5 4 6 6 5 7 9 7 6 7 8 9 8 9 11 8 7 6 6 4 2 2 2 2 3 3 5 7 10 13 17 24 27 28
19 18 19 20 20 20 20 20 20 20 19 18 19 18 18 18 18 18 18 16 15 15 16 16 15 16 15 13 16 21 22 15 7 6 4 14 14 14 9 16 21 16 13 14 12 11 11 10 8 3 3 4 4 5 6 6 5 4 7 8 6 6 8 10 10 10 10 9 10 7 6 8 6 3 3 4 1 1 5 5 6 11 14 16 16 19 23 23
21 19 19 19 19 20 20 20 20 20 20 20 20 19 18 18 18 18 18 18 16 15 16 17 16 15 14 13 13 17 14 4 2 2 4 13 19 20 14 8 17 18 14 13 12 11 12 8 3 2 3 4 5 5 7 9 5 4 9 8 5 7 9 11 10 10 10 10 10 5 6 8 7 5 2 4 3 5 6 7 10 16 18 19 18 17 17 16
21 20 20 19 19 19 20 20 20 20 20 20 20 20 19 18 18 18 18 19 18 16 16 16 16 15 14 13 11 12 4 3 8 2 2 11 24 25 17 7 11 18 17 14 12 9 8 5 3 3 3 4 8 8 6 9 8 6 7 7 7 8 8 8 10 11 11 12 11 5 4 3 4 6 3 3 2 7 6 6 10 13 15 16 16 13 13 13
20 20 21 21 20 20 20 20 20 21 21 20 20 20 20 19 18 18 18 19 18 17 17 16 17 15 14 13 9 7 3 9 20 11 6 17 24 25 16 9 9 15 17 15 12 8 6 5 6 4 4 5 6 9 8 8 10 9 8 7 8 10 10 8 8 11 11 13 11 3 3 3 4 6 2 6 7 4 4 11 15 14 16 17 15 14 15 15
20 20 20 20 20 20 20 20 20 21 21 21 21 20 20 19 18 19 18 19 19 18 17 16 17 16 15 12 7 6 5 19 33 24 19 25 23 19 15 10 9 14 16 17 14 9 7 6 7 5 4 6 4 6 9 8 10 12 10 8 7 8 10 11 10 11 11 10 7 3 6 6 6 4 3 6 5 10 14 17 18 19 19 17 16 15 15 13
22 21 21 21 20 20 20 20 20 21 21 21 21 21 21 20 19 19 19 19 19 19 18 17 16 16 16 11 7 8 12 27 33 25 21 18 19 18 15 15 11 14 15 17 17 11 7 6 8 7 4 6 6 6 8 9 8 9 11 9 9 9 9 11 13 15 13 8 5 5 8 8 7 5 4 5 8 14 17 17 17 20 18 15 14 13 14 12
22 22 22 23 22 21 21 20 20 21 21 21 21 21 21 21 20 20 20 20 19 19 19 18 16 16 16 11 9 10 13 20 17 12 11 13 21 25 22 20 14 13 13 13 16 13 9 8 7 7 5 5 5 6 8 10 5 5 10 11 12 11 9 9 13 16 13 8 7 7 10 9 7 6 1 2 8 14 17 16 15 17 15 14 13 11 12 12
22 22 22 23 22 22 22 21 21 21 21 20 20 21 21 21 21 21 21 20 19 20 19 19 17 17 16 11 9 10 8 10 10 11 17 25 30 29 25 22 17 14 12 10 14 17 16 13 8 4 5 4 5 6 7 8 6 6 9 10 13 13 12 10 12 12 8 6 8 8 10 7 4 5 7 5 7 14 18 14 13 15 12 12 12 10 10 9
21 22 22 22 22 22 22 22 22 22 22 21 20 21 21 21 21 21 22 21 19 19 18 19 17 17 17 11 12 18 16 17 22 27 33 34 31 30 28 25 22 20 17 10 12 20 22 19 12 7 5 3 3 5 6 6 7 10 9 8 12 13 14 14 12 9 7 5 7 8 6 5 3 5 10 10 8 13 18 14 12 12 10 9 10 9 8 8
22 22 22 22 22 22 22 22 22 22 22 22 21 21 22 22 22 22 22 21 20 19 19 18 17 17 15 8 13 28 30 31 35 36 39 36 30 33 31 27 25 22 21 16 14 17 21 22 15 9 9 5 3 4 6 7 5 8 10 7 7 9 12 13 11 9 8 6 7 7 3 5 4 5 10 11 12 14 15 13 11 10 8 8 8 7 7 8
22 22 22 22 22 22 22 22 22 23 22 22 21 21 23 23 23 23 22 22 21 19 18 17 17 15 11 9 19 32 32 32 37 36 37 35 27 29 31 26 23 21 20 19 18 16 14 18 14 9 9 7 5 7 9 7 3 4 6 5 5 5 6 9 10 10 9 6 9 9 4 6 6 3 8 10 15 16 12 11 10 9 9 8 8 9 8 6
23 23 23 22 22 22 22 22 22 22 22 23 22 22 25 25 24 23 22 22 20 19 18 17 16 11 7 11 20 25 22 22 30 32 31 29 20 19 25 22 18 19 19 18 18 15 11 11 9 6 6 6 7 7 6 5 3 3 4 6 6 4 3 6 10 11 10 6 8 10 5 4 5 4 9 10 13 16 13 9 9 9 9 9 8 9 9 7
23 24 24 24 23 23 23 23 22 22 22 22 22 24 26 27 26 24 22 21 20 18 15 13 11 7 5 9 12 15 15 17 25 26 24 23 18 18 22 19 17 19 18 17 15 13 11 8 4 4 5 6 6 5 4 4 4 3 5 5 4 5 4 5 7 10 13 8 6 9 5 3 5 4 8 8 11 15 13 10 10 10 9 10 9 9 11 10
24 24 24 24 24 24 23 23 23 23 22 22 24 26 27 28 28 24 21 19 20 18 14 11 8 5 8 9 11 12 10 13 19 21 22 21 19 21 20 13 12 14 14 15 13 9 7 5 3 4 5 6 5 5 5 6 6 4 2 4 4 6 6 4 5 8 13 11 7 7 6 4 4 4 7 6 10 14 13 12 12 11 11 10 9 9 11 12
24 24 24 24 25 25 23 23 23 23 22 23 24 25 28 28 24 20 18 15 12 11 11 12 7 4 7 8 9 11 8 10 13 17 21 19 18 22 19 10 7 7 7 8 8 6 4 3 3 3 5 7 6 7 8 6 5 4 3 4 4 6 7 7 5 5 10 13 10 7 5 4 4 5 6 5 8 12 12 11 12 12 12 11 9 9 9 11
25 25 25 26 26 25 24 23 23 23 22 23 24 26 27 20 11 8 8 5 2 2 4 5 6 4 5 6 10 14 14 18 19 18 19 16 15 18 18 12 7 4 3 3 4 6 4 3 5 6 8 10 10 9 7 3 4 6 5 4 5 5 5 6 6 6 8 9 9 8 6 6 6 6 7 5 6 10 10 9 9 10 11 9 9 8 8 10
26 26 27 27 26 26 24 24 24 23 21 21 23 21 15 8 4 3 0 3 5 6 7 5 8 9 9 11 11 13 17 18 16 13 16 14 13 14 11 10 5 3 5 4 4 5 5 4 8 9 9 10 10 8 7 5 5 6 5 5 6 5 4 5 6 7 7 6 7 8 8 8 9 9 8 8 7 9 10 10 9 10 11 9 9 9 8 8
27 27 27 27 26 25 24 24 23 22 21 21 19 11 3 2 2 3 3 4 9 11 13 13 12 12 14 18 15 11 12 14 14 14 21 18 13 14 7 8 7 5 6 5 4 3 6 8 9 8 7 8 9 8 7 8 8 7 5 4 6 6 5 5 5 7 7 6 5 6 8 8 9 8 7 10 11 11 13 13 11 12 10 8 9 9 8 7
28 27 27 26 25 24 25 24 22 22 22 18 11 3 3 6 7 7 6 6 9 12 15 16 16 15 17 26 25 12 7 10 15 18 19 12 11 12 6 10 9 6 6 5 5 4 7 9 8 7 6 6 8 8 8 9 8 8 6 4 5 5 3 4 5 6 4 4 5 6 8 7 6 5 6 8 9 9 12 14 15 15 12 10 10 9 9 10
27 28 28 26 24 25 25 23 23 21 16 11 7 6 6 10 11 12 5 4 10 10 10 13 15 13 15 23 23 13 9 9 11 17 16 7 8 10 8 11 10 7 7 8 8 7 7 7 7 7 6 7 8 10 10 9 7 6 5 4 4 4 4 4 6 6 4 4 4 6 6 3 3 4 3 2 2 3 3 5 8 10 11 12 11 10 11 13
28 29 29 27 26 25 24 24 21 13 9 12 11 9 9 10 11 10 2 3 9 6 7 15 15 11 17 21 13 9 10 9 8 14 13 4 7 9 8 10 10 8 9 11 11 8 5 5 9 8 8 9 8 10 12 9 6 7 6 6 4 4 5 4 5 6 5 3 4 8 6 2 2 4 1 2 5 5 3 5 5 4 6 8 10 10 12 13
29 30 29 28 25 24 24 21 12 7 14 15 9 7 10 10 10 7 0 2 6 4 5 11 9 10 22 22 12 9 7 8 11 13 10 4 5 6 6 7 8 10 12 12 11 8 5 5 11 11 10 10 9 10 13 10 5 7 7 6 6 5 5 6 3 2 3 3 3 8 5 0 1 1 2 2 2 3 2 6 7 5 7 9 10 11 12 12
31 31 29 27 24 24 21 11 6 11 16 9 5 10 12 10 8 2 3 2 4 4 2 2 2 7 13 11 9 8 5 9 12 14 13 11 10 6 6 6 5 9 11 9 7 5 5 8 12 13 11 11 11 10 12 12 7 6 5 8 8 7 7 7 2 3 4 5 6 9 6 3 1 4 6 5 6 6 5 7 7 7 10 11 11 12 13 13
32 32 29 26 23 21 14 7 10 13 9 6 10 13 12 11 8 2 3 3 3 1 2 2 2 2 4 6 12 10 5 6 8 11 13 13 10 8 8 7 5 7 8 6 6 5 8 11 12 14 13 10 10 9 10 12 9 4 5 9 10 10 11 8 3 3 4 4 5 9 6 4 4 7 7 5 6 6 6 7 9 9 11 12 12 13 13 13
33 32 28 24 21 18 13 12 12 8 6 10 12 11 10 12 7 2 1 2 1 2 1 3 4 3 3 4 13 10 5 3 3 7 11 13 10 6 6 7 7 8 9 8 6 5 8 12 14 16 14 10 9 7 8 11 9 5 5 7 7 9 9 6 4 4 4 2 4 6 5 5 4 4 4 4 7 8 9 11 12 13 14 14 14 14 12 12
34 31 27 22 18 15 11 11 10 8 9 12 9 8 8 8 4 2 2 0 0 1 1 3 5 3 6 2 11 11 7 3 1 3 8 11 12 6 4 4 6 8 10 8 4 6 8 10 13 14 12 9 7 7 7 10 8 6 6 5 3 4 5 4 5 5 3 2 5 7 6 5 2 3 5 5 7 10 11 11 12 13 14 13 13 15 13 11
35 31 25 19 16 12 7 9 10 8 9 9 7 7 6 3 3 2 0 1 1 0 2 2 4 3 7 4 7 10 10 6 3 1 6 6 9 8 4 3 4 5 7 7 4 6 8 8 10 11 10 8 6 6 7 8 8 6 8 6 3 2 1 2 4 4 4 4 6 10 9 6 4 6 7 8 11 15 13 10 11 13 15 14 13 13 12 11
37 29 21 15 12 9 5 6 6 6 8 8 7 6 3 2 2 0 1 1 2 2 1 2 3 3 6 4 3 8 10 8 6 3 4 5 6 7 4 3 4 3 3 5 6 7 8 9 8 8 10 10 7 6 8 8 8 7 7 5 2 3 2 1 2 2 5 6 6 9 9 6 5 7 9 11 13 14 15 14 16 18 18 16 13 13 12 11
36 26 16 9 9 7 6 5 4 5 6 6 5 3 2 1 0 2 2 2 2 2 0 2 3 3 4 4 3 7 8 6 6 6 5 5 5 5 6 4 4 5 4 5 6 6 7 8 7 7 10 13 10 7 7 8 8 8 7 5 4 1 1 3 3 3 5 5 6 7 10 6 5 7 14 18 14 12 16 18 20 21 19 17 14 14 12 10
33 23 12 5 7 8 7 6 4 3 4 4 3 1 1 1 2 3 2 2 2 1 1 2 5 5 5 4 3 6 8 6 5 6 7 6 5 4 6 5 3 5 4 4 5 5 4 5 7 10 9 12 13 9 7 8 9 9 7 6 6 4 4 4 4 2 2 5 7 6 10 6 3 4 14 21 19 17 17 14 15 19 19 17 15 14 12 11
29 19 11 7 7 8 6 5 4 3 2 2 2 0 2 3 3 2 3 3 2 2 3 4 6 8 5 4 3 4 7 7 6 6 6 6 6 4 5 6 7 4 3 4 4 5 6 5 8 10 8 11 14 11 8 7 7 8 5 6 5 5 5 4 3 4 4 5 5 3 5 5 4 3 11 20 18 12 10 7 9 10 11 13 12 13 13 12
25 16 11 9 8 8 4 3 5 5 2 1 1 2 3 3 2 2 2 3 2 3 5 6 6 5 2 4 5 4 3 6 8 7 6 7 7 6 5 6 9 6 3 5 4 5 6 4 7 9 7 14 15 10 8 6 5 7 4 6 5 5 6 2 3 6 5 2 3 2 3 4 5 1 1 10 10 9 11 10 11 10 9 11 11 12 12 11
22 16 10 7 8 8 5 5 8 8 4 0 2 3 2 3 3 1 2 3 2 3 7 7 2 1 1 2 2 2 3 4 7 6 5 7 8 8 7 5 8 8 4 4 3 5 6 4 7 10 8 15 16 10 10 9 6 5 5 5 6 6 7 4 3 1 4 4 4 2 1 1 1 5 6 9 12 11 13 13 13 12 12 12 11 11 11 11
24 16 8 8 8 7 8 8 10 10 4 1 3 3 2 3 3 2 3 4 2 1 4 4 1 1 2 1 2 2 5 4 6 5 4 7 7 8 8 5 8 10 8 6 2 3 6 4 7 12 10 14 17 11 9 9 7 6 6 6 4 5 3 4 3 1 4 4 4 1 3 2 2 2 3 9 13 10 13 14 13 12 13 12 10 10 11 12
23 13 7 8 6 6 11 10 11 9 2 2 5 5 3 3 2 3 5 6 2 1 2 1 1 3 3 2 1 2 4 3 4 5 5 5 5 7 10 7 8 11 10 8 3 2 3 2 5 10 11 11 12 10 7 6 5 5 6 7 5 5 3 1 3 2 3 4 3 3 2 3 3 4 5 11 14 13 13 13 14 14 14 13 11 11 12 13
15 7 4 3 1 6 11 12 10 5 0 2 4 4 2 3 5 4 7 8 2 1 2 2 1 2 2 2 2 2 3 3 4 3 4 5 3 7 11 7 7 12 11 8 5 3 0 3 3 6 9 8 6 7 7 5 3 4 5 6 4 4 4 3 3 4 4 4 3 2 1 2 3 7 12 15 15 16 16 14 15 16 15 13 11 12 13 13
8 2 2 1 2 7 12 11 6 1 2 3 3 4 4 5 5 6 8 7 2 1 2 2 1 2 2 2 2 2 2 4 4 2 3 6 3 5 11 9 4 7 10 9 6 4 3 3 3 3 6 9 4 4 7 6 5 5 4 4 4 3 2 2 2 3 4 4 3 2 1 4 5 7 15 18 18 19 20 18 16 15 15 14 13 13 13 13
5 2 2 1 5 11 11 5 1 1 3 3 3 5 6 6 6 8 8 5 3 1 1 2 2 1 1 2 2 2 2 3 4 3 2 6 5 3 8 11 5 3 7 8 7 5 3 2 4 3 4 8 4 3 8 8 6 6 4 3 5 5 3 3 2 2 2 4 5 5 3 6 5 6 14 19 19 20 21 21 18 17 18 17 15 15 16 15
3 1 4 4 3 9 6 1 3 2 2 3 3 4 6 6 6 8 6 1 3 2 2 3 3 2 2 2 2 2 3 3 3 2 1 4 8 5 3 8 7 4 3 5 6 6 4 2 3 4 4 6 5 3 7 8 6 5 4 3 4 5 5 5 3 4 1 1 1 4 3 6 5 5 12 15 18 20 20 19 17 15 17 17 16 16 16 16
2 4 8 10 3 5 1 3 4 2 3 5 5 5 6 5 4 6 5 2 1 0 2 3 3 3 3 3 2 3 3 2 3 3 2 3 7 7 3 6 9 6 2 2 5 4 4 2 3 3 1 1 1 3 1 4 5 3 2 2 4 4 4 5 5 4 2 1 1 3 2 5 5 3 7 8 11 15 16 15 16 14 13 14 16 15 14 14
3 4 5 8 3 2 0 3 5 6 7 8 9 6 3 2 3 4 5 4 3 2 2 3 3 4 3 3 3 3 1 1 3 3 2 3 2 6 6 8 11 8 4 4 3 1 2 2 3 5 3 2 3 4 3 1 3 3 1 2 4 6 5 4 3 3 2 2 4 5 3 6 6 1 7 7 6 7 6 6 9 11 12 13 13 12 12 13
4 2 2 6 4 1 1 2 4 6 8 11 12 9 4 1 4 4 4 5 3 3 3 3 3 4 4 3 3 4 3 5 3 3 2 3 3 2 6 9 12 10 7 7 4 1 1 2 4 5 5 5 4 4 5 4 3 2 1 1 4 7 7 5 3 5 1 3 3 5 4 4 4 3 12 12 11 11 9 8 8 5 8 11 12 13 13 13
3 2 2 5 4 2 1 2 3 4 7 10 9 8 7 6 2 3 4 3 4 5 3 3 3 3 3 2 2 4 4 1 2 4 3 3 4 2 5 10 11 8 5 8 6 2 2 1 3 6 6 7 6 5 5 6 4 3 1 3 4 6 8 5 4 4 4 2 1 3 5 4 3 7 13 13 13 13 11 12 11 7 8 11 12 14 13 13
2 2 3 4 3 3 3 4 4 5 7 8 5 5 8 9 7 2 1 1 5 7 4 2 3 4 4 6 4 4 8 7 6 6 5 4 5 3 2 5 6 2 2 4 4 2 3 1 1 6 7 6 6 5 4 7 5 6 6 4 4 5 8 7 4 5 5 3 2 6 4 8 7 8 13 16 15 13 12 14 15 14 14 13 12 13 13 13
3 1 2 3 3 4 5 6 7 9 12 9 3 4 9 10 9 6 3 3 5 5 3 2 6 8 7 5 3 3 7 6 4 4 5 5 6 6 3 3 2 3 5 4 4 3 5 1 1 4 5 2 1 3 6 8 5 6 7 4 2 5 8 7 5 6 6 5 6 6 5 7 8 7 12 17 17 17 17 16 16 15 14 13 14 14 14 14
3 1 2 3 3 4 6 9 10 10 11 9 4 5 10 11 11 8 4 3 5 5 4 3 7 10 8 4 3 2 4 3 3 2 4 6 6 5 3 2 2 4 5 4 4 2 5 1 3 2 4 5 5 2 3 8 6 4 5 6 5 6 7 7 4 4 6 4 4 7 5 2 2 5 9 9 9 10 11 10 12 14 14 14 15 15 14 14
2 2 3 3 3 5 6 7 8 7 7 7 5 7 9 9 12 12 5 1 4 6 4 4 8 10 8 4 2 1 1 2 3 2 3 5 5 3 3 3 3 4 4 3 4 3 4 1 4 3 5 5 6 5 2 5 7 5 3 3 5 7 4 4 4 3 4 4 3 7 8 2 2 1 5 7 8 8 8 9 11 13 14 15 15 14 14 14
5 5 5 4 4 5 5 5 6 5 4 5 5 8 10 9 11 13 7 2 2 4 5 7 9 8 6 5 3 1 4 4 5 7 6 4 4 3 3 2 2 4 3 2 3 3 4 1 3 5 5 4 5 5 4 2 5 4 2 4 3 7 3 2 3 3 5 7 7 6 5 4 2 2 5 8 11 12 12 12 12 12 13 16 16 16 16 16
8 6 5 4 3 4 5 5 5 4 3 5 8 10 11 11 12 12 7 2 4 4 6 7 7 5 5 6 5 4 6 6 7 8 6 6 7 5 5 6 4 3 2 0 3 2 2 3 2 4 4 3 5 3 2 4 6 1 5 5 3 4 3 2 2 2 5 9 9 5 5 5 6 8 8 9 11 14 15 14 13 13 14 14 14 15 15 16
Wind_Direction
345 344 342 342 341 340 340 339 338 335 333 331 330 330 328 329 327 321 320 315 313 309 299 290 287 299 308 314 321 320 320 320 319 312 289 274 274 266 258 243 225 246 275 291 281 271 284 280 256 237 217 209 198 204 207 203 203 179 177 214 222 210 205 187 188 200 182 214 243 254 249 237 254 260 277 339 349 79 98 31 56 52 52 138 125 130 138 135
341 340 338 339 338 337 336 336 336 336 334 331 331 330 328 329 327 322 319 316 317 313 309 298 285 290 300 313 321 319 320 319 312 293 282 287 286 267 247 236 233 244 258 268 255 238 248 269 261 234 191 193 211 193 186 191 194 198 185 204 221 208 203 196 198 213 197 223 247 269 268 241 226 223 190 330 299 13 72 50 62 69 72 99 117 132 134 131
336 336 335 335 334 333 333 333 332 333 333 332 330 329 328 328 327 324 320 318 318 315 314 306 295 290 291 309 319 318 320 318 306 278 296 349 335 288 250 231 228 235 239 241 244 235 231 258 294 297 192 211 228 200 191 194 200 205 195 214 224 201 209 221 213 226 225 235 257 276 278 250 216 203 123 179 244 75 140 134 97 111 121 123 131 136 132 132
337 336 333 331 332 330 329 330 329 330 329 330 329 327 327 326 326 324 320 319 318 317 315 310 306 294 290 308 317 320 322 313 285 257 14 33 15 354 305 233 222 223 226 230 240 244 247 271 306 318 212 218 226 215 211 206 200 201 207 219 216 183 212 228 217 231 243 247 254 270 299 295 284 254 168 161 155 249 214 206 166 150 141 138 142 142 136 135
344 340 335 331 331 329 327 327 326 326 325 325 326 325 324 323 325 324 322 319 317 318 316 314 311 299 293 302 316 327 328 303 265 223 67 26 3 349 336 258 218 214 212 223 239 252 260 271 302 276 226 217 216 214 222 216 208 231 226 225 207 184 211 226 220 232 243 254 258 262 284 291 308 290 220 133 169 230 220 202 170 153 148 148 146 144 133 123
347 344 340 336 333 329 327 326 324 323 321 321 321 321 322 320 321 321 322 319 317 316 316 317 313 305 296 297 318 327 315 258 304 287 138 355 353 345 330 297 227 212 207 219 237 246 253 240 203 229 214 212 219 214 220 216 211 238 241 226 216 208 215 219 218 228 234 249 252 234 246 277 333 299 323 43 242 249 241 157 137 138 135 129 125 122 107 86
345 343 342 339 337 332 328 325 324 322 320 319 316 316 317 316 316 317 319 318 317 315 314 316 314 311 302 303 307 288 201 263 275 252 256 311 337 348 336 293 235 211 207 211 222 222 220 214 203 204 211 221 222 215 221 224 219 229 241 233 227 224 227 227 221 226 228 239 238 226 310 311 309 292 355 347 312 323 34 85 95 95 89 91 92 91 87 76
341 340 338 337 336 333 329 325 323 321 319 318 314 313 312 312 312 313 315 314 316 313 312 312 313 314 306 304 287 261 215 250 257 259 286 303 316 334 338 307 240 209 207 210 212 208 210 217 212 207 214 228 232 216 212 225 232 229 233 235 236 233 231 234 240 241 235 237 239 261 286 261 238 255 344 340 14 72 83 90 93 93 88 88 89 88 92 90
339 338 335 334 332 331 330 326 324 320 318 316 314 313 311 309 308 308 310 310 312 311 310 309 308 313 307 296 271 262 246 250 263 282 295 301 302 306 318 317 270 217 206 215 217 207 205 206 211 216 219 241 251 239 210 213 229 222 225 235 238 240 234 228 235 243 243 240 238 249 260 252 228 222 342 9 94 96 93 96 98 100 97 99 102 106 114 113
337 336 334 332 331 329 328 326 324 321 318 316 313 313 311 309 306 304 305 305 307 308 308 307 306 311 306 287 258 259 261 261 276 292 282 289 300 301 304 311 294 235 211 213 217 209 207 207 211 224 242 260 254 251 226 216 223 209 217 232 237 242 243 228 228 235 241 244 225 231 248 249 232 206 244 36 110 103 95 97 102 105 109 119 124 123 122 118
336 335 334 332 330 328 327 325 323 322 320 317 314 313 310 308 305 302 301 300 302 303 305 305 307 310 302 284 253 253 263 265 266 271 284 298 302 303 299 302 304 273 241 216 213 212 213 221 232 239 236 246 256 268 261 235 239 236 220 229 237 241 249 238 234 228 223 240 211 208 239 233 214 200 180 156 122 110 107 104 101 106 117 129 127 121 121 122
336 336 334 332 330 328 327 324 322 321 320 319 317 314 310 307 304 301 299 297 297 297 300 303 306 310 301 282 249 250 258 267 275 284 290 295 295 293 292 290 290 284 272 256 227 220 215 220 233 243 239 243 253 254 271 254 232 237 230 228 235 239 245 240 241 228 189 214 190 175 233 232 197 188 161 143 126 114 110 107 106 114 124 127 126 123 120 128
336 336 334 332 331 328 327 324 323 320 319 319 318 316 311 307 303 299 297 295 294 292 295 298 303 307 298 277 258 261 265 273 280 285 286 286 285 284 285 283 281 279 273 266 256 241 222 217 222 240 257 261 257 259 289 284 233 228 229 224 234 237 243 237 236 232 209 206 165 153 225 251 237 179 153 140 129 118 112 121 127 125 126 126 129 123 118 131
334 334 333 332 330 328 327 324 323 321 319 318 318 316 310 305 301 297 295 292 290 290 290 292 298 303 288 270 274 271 271 276 277 277 277 276 276 280 280 279 278 275 272 267 263 262 238 223 220 234 254 245 258 295 309 295 243 211 220 216 211 218 242 236 227 222 221 210 152 157 211 241 247 187 163 151 132 124 119 129 131 129 132 133 136 132 132 135
332 331 331 330 329 327 324 322 322 321 319 318 318 315 309 306 300 294 292 288 286 287 287 290 289 287 285 277 277 279 279 276 269 264 265 266 262 269 276 278 279 274 275 275 264 262 256 236 216 222 250 238 238 268 290 290 262 197 199 215 201 200 239 232 225 210 210 212 152 165 202 237 251 219 181 162 133 128 127 134 134 135 137 136 141 139 136 133
330 328 328 327 327 325 322 321 320 319 318 317 316 314 311 309 302 294 288 284 283 283 284 288 278 252 254 276 281 283 275 258 258 263 266 261 245 245 262 272 282 280 280 278 265 255 252 242 210 212 236 236 221 217 250 278 269 227 192 202 185 183 217 234 235 214 205 209 174 177 184 222 254 231 191 164 133 128 128 139 142 141 143 141 143 142 142 142
330 328 326 325 324 323 322 320 319 318 316 315 315 313 312 311 305 295 286 282 281 277 268 258 261 261 251 267 295 291 269 254 257 266 270 261 241 238 248 260 272 278 286 281 264 245 235 224 199 210 216 225 207 170 213 233 233 250 184 188 194 175 186 215 242 224 205 206 206 181 163 193 217 194 185 165 138 134 135 148 151 148 147 145 145 147 152 150
331 329 327 326 324 322 320 318 317 316 314 314 313 313 313 311 307 296 282 279 280 272 261 249 248 285 254 242 261 263 273 293 281 273 270 260 240 231 226 227 254 267 292 289 256 215 194 198 188 207 212 212 206 186 204 210 185 199 181 176 200 183 179 190 214 222 195 201 208 178 153 185 192 175 167 155 148 143 144 151 151 149 149 151 154 156 160 156
332 330 330 328 325 323 320 317 316 314 315 315 313 316 317 315 317 305 272 253 245 232 252 232 193 208 272 254 238 251 282 299 294 285 273 253 224 218 212 217 247 246 249 265 209 188 173 183 192 205 214 206 208 200 199 209 162 177 188 180 189 188 193 194 208 217 176 183 206 182 160 170 177 183 162 142 140 135 138 144 145 150 153 156 161 161 162 160
331 329 330 330 327 326 323 320 317 313 316 317 318 324 328 336 352 339 84 176 205 223 249 231 197 218 273 284 268 283 300 299 289 277 279 265 197 185 198 207 228 232 225 221 202 188 163 199 214 207 211 206 207 196 186 229 231 204 194 194 199 192 217 212 208 220 167 153 214 189 159 169 178 186 167 139 126 130 141 148 151 158 162 165 164 159 157 155
330 328 329 330 329 328 325 323 318 314 316 315 317 325 325 324 315 328 350 258 230 225 244 246 227 228 252 265 273 306 314 302 294 282 285 277 182 160 186 188 197 220 214 222 237 204 175 212 222 205 211 211 204 187 183 221 238 238 223 206 212 195 217 226 212 226 178 151 226 176 143 177 187 183 166 143 145 157 159 157 163 168 168 170 160 152 147 144
329 327 327 330 330 328 326 323 319 315 316 313 309 284 240 270 275 297 313 287 262 234 239 248 242 242 252 260 265 277 286 282 291 289 289 280 172 161 179 178 194 208 192 218 235 206 201 220 211 193 208 210 199 187 195 221 228 238 231 210 224 191 196 245 238 241 186 161 224 174 150 184 186 160 162 160 159 173 173 167 169 168 166 168 163 154 146 146
328 326 328 330 328 327 326 323 319 317 320 318 293 241 265 292 298 307 300 280 284 253 231 241 241 241 248 259 262 253 243 251 273 279 282 276 179 174 170 177 193 197 196 210 210 200 208 213 188 188 205 203 201 190 196 222 228 235 219 195 235 200 176 216 237 246 208 174 191 156 137 148 100 87 140 195 93 122 158 152 156 161 161 165 162 156 155 155
328 328 330 331 328 327 325 322 321 324 328 322 297 273 300 319 327 332 326 248 285 266 221 231 231 228 234 245 242 211 225 231 236 263 271 246 182 181 172 179 181 191 211 212 212 218 218 180 171 191 211 204 203 192 196 214 222 235 222 189 218 226 204 205 223 236 216 181 134 110 86 55 67 78 122 333 34 72 84 116 131 134 136 148 152 157 165 162
329 331 331 331 329 328 325 322 322 328 325 318 299 309 333 331 334 340 202 239 282 260 216 225 225 227 232 234 218 198 235 236 220 238 255 254 215 192 175 180 179 196 208 206 210 223 231 178 171 194 216 207 206 200 200 201 208 242 231 189 199 219 232 232 226 209 181 219 181 124 107 236 332 35 213 236 103 114 135 146 151 141 142 154 157 162 168 163
332 333 332 329 326 327 329 325 311 321 321 309 292 326 332 323 325 334 167 269 280 260 246 227 225 222 224 216 189 193 246 257 240 232 238 250 249 232 192 175 187 202 199 200 210 214 214 186 175 196 213 209 212 213 205 194 196 237 204 174 199 218 231 230 179 105 174 225 211 175 168 165 232 256 224 200 164 160 164 161 163 156 160 168 165 165 168 163
334 332 330 327 325 329 330 308 307 317 313 301 312 319 319 314 307 191 165 286 264 286 298 256 271 229 213 172 158 167 216 256 248 224 222 230 242 259 229 181 179 201 188 191 208 195 192 187 182 195 206 213 213 212 205 192 195 222 164 164 196 217 233 231 144 139 217 255 224 197 167 123 189 222 209 183 154 157 173 174 172 170 170 170 169 172 169 164
334 332 328 326 324 322 310 295 299 294 291 315 324 323 320 316 302 171 82 300 229 19 328 259 283 306 310 187 163 175 239 261 226 198 196 206 217 257 242 188 178 194 194 198 195 178 187 191 188 191 202 215 211 204 192 186 200 225 180 175 191 205 228 226 169 206 238 276 245 207 125 114 193 190 166 168 163 174 192 190 182 179 176 172 171 175 170 163
334 330 328 328 322 315 304 288 277 270 304 324 337 340 328 322 329 86 76 293 274 33 94 296 298 321 338 275 175 195 242 245 241 164 159 192 210 225 256 207 183 195 213 219 183 171 197 199 189 190 204 210 201 199 186 184 205 229 216 210 208 207 225 208 187 215 223 198 235 218 159 124 154 174 167 173 186 196 198 191 187 182 177 175 174 174 170 162
333 329 331 332 320 315 310 285 275 290 326 338 343 343 336 338 16 52 217 288 325 150 163 290 308 14 355 322 183 202 231 234 274 183 142 173 198 203 255 269 204 199 220 226 214 206 208 197 187 193 204 198 189 199 194 190 195 215 228 230 260 282 268 217 199 191 202 228 239 216 186 136 140 203 194 184 196 195 186 182 183 181 178 180 178 174 169 161
335 333 336 335 316 308 302 284 288 323 343 343 339 342 351 34 54 146 265 285 269 256 185 262 299 25 8 340 198 207 227 241 264 256 184 171 175 187 214 238 202 186 219 221 227 232 215 199 191 191 194 183 183 204 204 202 193 201 221 210 224 321 353 274 262 181 197 240 249 206 182 163 174 200 203 211 213 190 178 180 179 179 182 181 177 172 166 159
336 333 336 332 311 288 262 271 305 336 340 336 334 350 28 29 278 222 262 300 280 275 21 275 292 344 355 323 261 212 218 236 233 242 235 183 180 205 197 198 179 166 197 202 200 219 224 216 193 178 189 184 184 198 199 206 204 202 208 179 167 201 203 214 228 215 204 238 252 185 165 193 220 198 196 206 212 191 187 188 177 175 178 177 172 168 165 159
334 331 328 314 300 287 276 291 305 314 327 332 347 41 124 274 253 217 240 280 269 232 202 256 271 290 296 295 273 215 215 227 201 227 249 193 182 232 215 219 202 161 175 174 170 188 218 242 206 184 190 187 187 188 190 204 202 199 198 169 167 171 175 208 219 219 203 230 249 189 162 195 245 210 197 199 203 195 192 190 176 173 173 170 166 162 164 163
332 331 324 294 282 287 291 292 273 252 279 339 27 115 246 262 251 240 249 242 249 264 258 257 269 283 272 233 255 225 206 222 208 215 238 194 183 227 219 217 217 193 143 149 168 178 187 231 212 192 182 180 191 195 184 183 187 203 191 138 161 169 159 196 196 180 201 233 251 187 160 187 182 208 208 202 201 184 163 151 151 160 161 157 156 157 162 163
329 330 324 292 268 273 275 241 232 224 193 72 22 248 254 266 256 269 266 245 271 296 286 280 273 283 263 194 228 255 224 226 219 219 226 195 191 211 208 208 210 208 154 157 186 187 191 229 207 196 183 174 188 197 173 156 174 202 169 133 180 182 151 164 186 176 174 203 251 182 179 204 171 28 261 176 166 131 125 131 138 146 150 151 156 160 162 161
332 336 331 287 272 270 242 195 199 198 178 136 280 251 241 252 250 254 277 272 278 297 308 313 286 235 305 149 174 259 273 233 205 213 217 196 203 209 201 203 203 205 187 169 197 175 179 249 204 189 187 178 184 191 178 173 174 178 173 180 196 166 135 134 195 191 109 145 243 217 159 273 96 20 22 111 126 126 132 140 148 152 154 157 161 161 161 161
334 337 323 289 292 262 213 188 181 181 169 201 252 262 239 234 251 261 279 287 286 278 311 328 13 34 25 74 99 191 254 246 192 197 194 190 214 208 197 210 204 208 204 187 236 167 160 246 215 182 186 188 184 183 189 188 167 160 192 203 182 161 131 102 146 336 74 152 259 295 161 194 92 27 13 106 120 136 142 144 150 151 156 163 166 161 159 160
327 321 300 299 304 218 196 184 170 165 148 238 256 269 241 217 242 255 279 286 281 220 291 317 355 1 34 60 24 226 251 253 184 190 182 183 223 199 190 208 206 211 211 187 221 291 150 211 222 184 184 188 177 173 201 218 174 151 182 188 167 175 215 56 149 174 122 162 269 314 211 197 134 155 156 132 138 151 151 150 155 160 165 168 163 159 156 156
326 316 307 334 345 195 189 175 161 150 208 255 269 276 248 252 253 251 276 280 257 178 297 343 35 332 350 26 348 277 265 257 209 200 171 173 231 207 191 199 208 211 212 190 196 281 291 142 195 201 177 164 164 173 194 218 172 117 153 180 164 145 173 183 171 164 148 168 222 295 303 249 209 171 156 153 155 156 157 163 169 169 169 167 162 160 157 156
333 324 320 7 155 182 175 164 151 156 250 244 270 275 277 287 276 271 273 264 228 138 273 322 4 321 330 342 316 285 283 270 238 213 164 174 207 223 200 198 203 199 204 211 215 262 295 149 169 241 168 155 178 197 181 184 169 144 160 183 164 140 161 162 161 159 139 149 176 185 250 265 246 179 158 159 161 163 168 172 174 171 166 167 166 160 156 157
322 323 314 34 153 164 158 158 202 237 245 265 273 271 290 302 296 300 290 242 198 181 223 283 289 273 304 308 291 260 277 284 237 194 159 176 188 231 208 196 203 193 187 208 224 226 252 177 163 194 170 163 175 164 161 168 163 149 161 191 173 163 141 121 213 258 117 137 165 160 207 265 263 185 166 163 165 173 176 173 172 171 168 167 167 163 160 160
317 307 298 319 198 171 150 248 262 226 248 274 263 263 293 305 299 311 318 225 193 198 191 240 250 232 257 265 262 271 282 299 262 208 145 188 200 225 206 176 199 248 192 201 230 207 185 132 141 165 183 182 174 140 153 163 151 131 152 185 155 143 126 124 193 243 126 137 162 123 183 263 274 200 174 170 172 174 175 172 168 168 169 166 164 165 163 159
329 294 307 326 286 201 224 294 275 310 289 275 270 255 270 292 298 308 321 322 311 297 191 237 239 211 238 264 283 317 342 332 279 242 203 228 214 212 191 160 192 237 255 223 250 226 170 137 119 115 8 292 336 5 42 148 138 119 170 181 133 143 153 143 171 189 139 205 146 102 206 257 289 244 172 168 174 170 169 168 162 161 165 162 160 162 159 153
314 270 302 347 5 176 314 318 314 327 317 310 312 300 267 249 270 297 314 318 321 319 257 247 224 199 227 264 254 278 312 247 291 280 236 289 246 190 183 174 189 212 218 202 227 237 202 185 112 101 81 26 5 339 320 236 161 142 182 231 162 146 139 146 151 93 55 242 159 131 210 254 294 324 128 117 108 117 121 131 144 156 159 156 157 156 150 147
316 256 261 336 352 89 71 340 323 322 324 324 326 333 344 276 234 249 281 286 292 309 285 249 238 226 235 248 236 256 237 197 237 307 290 302 323 188 184 188 193 204 224 246 274 10 187 183 114 124 158 171 180 214 220 203 179 143 68 298 192 148 137 168 156 85 59 249 149 142 201 256 320 98 127 129 115 99 87 79 78 105 148 154 156 154 152 153
338 335 310 328 340 42 35 310 320 327 324 326 327 335 348 346 307 231 237 267 320 332 301 248 271 266 263 320 336 319 326 247 263 335 356 316 311 269 191 189 192 198 238 273 292 18 85 88 110 130 159 175 187 212 190 139 136 166 182 292 241 161 131 122 115 132 182 192 101 217 191 136 117 132 131 139 141 131 126 122 117 133 163 168 165 160 158 159
15 354 345 343 325 346 351 327 345 339 312 314 317 317 334 347 346 323 227 315 339 336 305 259 359 14 355 357 6 345 349 351 340 347 349 321 300 283 191 160 171 175 339 308 314 52 91 60 101 134 150 169 187 197 141 110 126 166 178 256 264 145 115 101 130 186 165 124 275 260 192 147 165 170 147 148 153 148 145 148 155 167 174 174 167 160 157 154
18 350 349 358 314 323 335 320 323 321 313 313 305 310 333 348 355 356 349 316 325 348 2 346 8 12 353 355 23 351 349 348 324 332 344 338 329 325 3 81 103 38 26 349 334 52 104 89 303 147 138 102 127 169 132 119 131 149 160 199 208 135 129 130 177 192 140 146 216 220 186 172 176 182 168 160 161 164 165 166 167 166 166 166 162 158 156 154
9 315 322 356 318 299 288 290 302 309 317 327 334 334 339 345 352 353 342 309 321 359 40 2 347 350 342 356 65 28 356 335 305 336 12 352 327 320 17 61 4 22 41 5 328 56 101 12 313 110 88 15 1 351 131 133 139 140 162 188 165 149 156 145 161 176 132 141 190 154 142 189 184 180 175 155 143 151 154 152 152 156 161 165 164 160 158 156
8 308 326 333 304 291 274 288 311 310 319 341 349 341 336 338 348 345 338 10 329 336 7 341 324 329 330 344 60 115 228 280 276 273 335 339 324 332 28 35 348 357 23 5 327 5 84 327 294 69 60 346 347 354 359 145 156 170 205 211 134 121 138 135 127 134 104 74 73 116 121 97 340 128 135 114 99 105 123 143 154 161 165 163 163 162 158 156
336 290 306 311 298 312 309 315 328 314 322 353 348 340 335 333 340 336 323 169 196 302 328 322 313 317 323 344 10 292 256 258 246 244 259 276 281 305 325 318 358 354 339 355 343 354 66 49 325 56 63 321 343 348 297 172 132 150 256 283 127 117 129 170 152 160 143 119 97 93 125 161 193 146 135 142 139 139 153 163 163 168 170 167 167 164 160 157
339 292 298 306 283 309 323 322 327 323 331 345 337 334 328 322 328 332 325 192 195 261 290 292 301 324 337 336 333 298 276 267 256 253 249 241 245 256 259 258 269 279 262 19 25 352 70 86 31 67 89 304 325 317 239 99 88 203 258 256 209 153 141 120 107 169 158 136 132 154 185 182 165 152 150 157 160 163 169 170 169 172 171 170 169 163 159 159